Weather History for Edwards AFB, CA

Change the Weather History Date:

Wednesday, December 5, 2012

  Actual Average Record
Temperature  
Mean Temperature 54 °F -  
Max Temperature 74 °F 57 °F 74 °F (2012)
Min Temperature 33 °F 30 °F 15 °F (2006)
Degree Days  
Heating Degree Days 12    
Growing Degree Days 4 (Base 50)    
Moisture  
Dew Point 31 °F    
Average Humidity 45    
Maximum Humidity 78    
Minimum Humidity 19    
Precipitation  
Precipitation 0.00 in - - ()
Sea Level Pressure  
Sea Level Pressure 30.08 in    
Wind  
Wind Speed 8 mph (WSW)    
Max Wind Speed 23 mph    
Max Gust Speed 32 mph    
Visibility 10 miles    
Events      
Averages and records for this station are not official NWS values.
T = Trace of Precipitation, MM = Missing Value Source: NWS Daily Summary

Daily Weather History Graph

Daily Weather History Graph

Search for Another Location

Airport:

Trip Planner

Search our weather history database for the weather conditions in past years. The results will help you decide how hot, cold, wet, or windy it might be!

Date:

Astronomy

Dec. 05, 2012 Rise Set
Actual Time 6:44 AM PST 4:39 PM PST
Civil Twilight 6:17 AM PST 5:07 PM PST
Nautical Twilight 5:45 AM PST 5:39 PM PST
Astronomical Twilight 5:14 AM PST 6:09 PM PST
Moon 11:22 PM PST (12/5) 11:21 AM PST (12/5)
Length of Visible Light 10h 50m
Length of Day
9h 55m
Waning Gibbous, 58% of the Moon is Illuminated
Dec 5
Waning Gibbous
Dec 6
Last Quarter
Dec 13
New
Dec 19
First Quarter
Dec 28
Full

Hourly Weather History & Observations

Time (PST) Temp. Windchill Dew Point Humidity Pressure Visibility Wind Dir Wind Speed Gust Speed Precip Events Conditions
12:58 AM 37.0 °F 32.4 °F 29.7 °F 75% 30.19 in 10.0 mi WSW 5.8 mph - N/A   Clear
1:58 AM 36.7 °F 32.0 °F 30.2 °F 77% 30.18 in 10.0 mi SW 5.8 mph - N/A   Clear
2:58 AM 36.9 °F - 29.1 °F 74% 30.16 in 10.0 mi Calm Calm - N/A   Clear
3:58 AM 33.4 °F 30.4 °F 26.4 °F 75% 30.15 in 10.0 mi SSE 3.5 mph - N/A   Clear
4:58 AM 33.4 °F 30.4 °F 27.1 °F 78% 30.15 in 10.0 mi SW 3.5 mph - N/A   Clear
6:58 AM 33.6 °F - 26.8 °F 76% 30.17 in 90.0 mi SSE 2.3 mph - N/A   Mostly Cloudy
7:58 AM 39.9 °F - 27.5 °F 61% 30.17 in 90.0 mi ESE 2.3 mph - N/A   Mostly Cloudy
8:58 AM 45.0 °F 43.5 °F 29.3 °F 54% 30.17 in 90.0 mi ENE 3.5 mph - N/A   Mostly Cloudy
9:58 AM 50.2 °F - 29.8 °F 46% 30.15 in 90.0 mi Variable 1.2 mph - N/A   Mostly Cloudy
10:58 AM 63.0 °F - 27.5 °F 26% 30.10 in 90.0 mi SW 5.8 mph - N/A   Mostly Cloudy
11:58 AM 72.3 °F - 28.2 °F 19% 30.05 in 90.0 mi South 5.8 mph - N/A   Mostly Cloudy
12:58 PM 74.8 °F - 35.2 °F 24% 30.02 in 90.0 mi WNW 18.4 mph 20.7 mph N/A   Mostly Cloudy
1:21 PM 73.4 °F - 37.4 °F 27% 30.04 in 90.0 mi WNW 20.7 mph 26.5 mph N/A   Mostly Cloudy
1:40 PM 73.4 °F - 37.4 °F 27% 30.03 in 90.0 mi WNW 20.7 mph 32.2 mph N/A   Mostly Cloudy
1:58 PM 73.2 °F - 38.8 °F 29% 30.01 in 90.0 mi West 23.0 mph 27.6 mph N/A   Mostly Cloudy
2:58 PM 71.8 °F - 40.1 °F 32% 29.99 in 90.0 mi West 16.1 mph - N/A   Mostly Cloudy
3:58 PM 69.4 °F - 40.3 °F 35% 30.00 in 90.0 mi West 15.0 mph - N/A   Mostly Cloudy
4:58 PM 65.7 °F - 35.1 °F 32% 30.02 in 90.0 mi West 16.1 mph - N/A   Mostly Cloudy
5:58 PM 63.9 °F - 23.5 °F 22% 30.02 in 30.0 mi WNW 18.4 mph 26.5 mph N/A   Mostly Cloudy
6:58 PM 61.2 °F - 26.2 °F 26% 30.04 in 40.0 mi West 12.7 mph - N/A   Mostly Cloudy
7:58 PM 57.7 °F - 30.7 °F 36% 30.03 in 40.0 mi SW 12.7 mph 20.7 mph N/A   Scattered Clouds
8:58 PM 54.1 °F - 29.8 °F 39% 30.03 in 40.0 mi WSW 9.2 mph - N/A   Scattered Clouds
9:58 PM 52.2 °F - 26.2 °F 37% 30.03 in 40.0 mi South 3.5 mph - N/A   Scattered Clouds
10:58 PM 48.6 °F - 26.1 °F 42% 30.01 in 10.0 mi Variable 3.5 mph - N/A   Clear
11:58 PM 50.4 °F - 32.0 °F 49% 29.99 in 10.0 mi SSW 10.4 mph - N/A   Clear